Wetbulb
57.78 58.80 59.35 59.24 58.86 58.39 57.98 57.90 57.91 57.71 57.36 56.55 55.98 55.16 54.38 53.97 52.83 52.26 51.94 51.85 51.35 50.99 50.73 50.64 50.68 50.91 51.36 51.94 52.57 52.93 53.03 52.85 53.03 53.11 53.11 53.03 53.30 53.62 53.93 54.16 54.15 54.06 54.01 53.88 53.64 53.32 53.09 52.96 52.60 52.21 51.85 51.80 51.69 51.59 51.63 51.62 51.56 51.42 51.19 50.84 50.71 50.76 50.94 50.99 50.95 51.13 51.31 51.48 51.47
57.68 58.74 59.28 58.91 58.19 57.61 57.00 56.48 55.97 55.61 55.38 55.01 54.45 53.80 53.16 52.35 51.66 51.13 50.77 50.72 50.63 50.45 50.27 50.10 50.14 50.19 50.23 50.64 51.36 51.63 51.58 51.40 51.45 51.67 51.85 51.90 51.85 51.94 52.26 52.44 52.58 52.71 52.70 52.57 52.29 51.98 51.85 51.89 51.80 51.45 51.18 51.12 50.73 50.42 50.29 50.52 50.69 50.49 50.26 50.04 50.00 50.04 49.99 49.78 49.78 49.83 49.87 49.87 50.00
57.87 58.20 57.98 57.53 56.81 55.91 55.06 54.34 53.85 53.53 53.30 52.97 52.65 52.24 51.73 51.10 50.53 50.04 49.78 49.82 50.13 50.13 49.90 49.46 49.60 49.55 49.51 49.60 50.00 50.23 50.27 50.23 50.23 50.09 50.05 50.19 50.32 50.50 50.59 50.77 50.90 51.00 50.99 51.08 50.99 50.95 50.95 51.08 50.99 50.72 50.39 50.23 49.83 49.48 49.21 49.39 49.74 49.51 49.30 49.12 49.24 49.23 49.01 48.66 48.80 48.85 48.76 48.54 48.63
56.65 56.57 56.36 55.83 55.37 54.65 53.84 53.34 52.80 52.25 51.71 51.22 51.04 50.86 50.54 50.16 49.63 49.23 49.01 49.05 49.19 49.27 49.23 49.10 49.01 48.96 48.87 48.74 48.88 49.10 49.24 49.33 49.24 48.83 48.52 48.70 48.79 48.97 49.19 49.37 49.37 49.42 49.51 49.73 49.91 49.96 50.00 50.22 50.00 49.64 49.27 48.99 48.73 48.33 48.02 48.19 48.37 48.23 48.01 48.09 48.18 48.04 47.95 47.73 47.86 47.73 47.56 47.34 47.25
54.10 54.01 53.65 53.30 53.16 52.98 52.84 52.61 51.89 51.30 50.95 50.50 50.23 50.05 49.82 49.41 49.05 48.70 48.47 48.25 48.07 48.07 48.24 48.47 48.29 48.11 47.88 47.84 47.79 47.84 47.97 48.02 48.06 47.75 47.39 47.25 47.75 47.89 47.93 48.11 48.11 48.16 48.29 48.56 48.74 48.88 48.96 49.10 48.74 48.29 47.93 47.61 47.12 46.90 46.90 47.12 47.07 46.98 46.81 46.89 46.89 46.85 46.71 46.71 46.67 46.54 46.45 46.23 46.01
51.18 51.18 51.04 51.18 51.13 51.18 51.22 50.90 50.58 50.41 50.14 49.87 49.55 49.15 48.78 48.47 48.11 47.75 47.34 47.07 47.03 47.21 47.48 47.52 47.39 47.07 46.81 46.67 46.54 46.40 46.40 46.49 46.71 46.44 46.17 46.13 46.40 46.40 46.31 46.40 46.67 46.90 47.12 47.39 47.61 47.93 48.06 48.02 47.75 47.34 46.85 46.19 45.96 45.87 46.10 46.27 46.01 45.84 45.66 45.44 45.62 45.70 45.79 45.62 45.70 45.70 45.62 45.31 45.27
48.65 48.79 48.88 48.92 49.10 49.01 48.88 48.79 48.79 48.88 48.79 48.34 48.06 47.57 47.03 46.71 46.35 46.08 45.99 45.68 45.77 45.95 46.18 46.13 45.91 45.68 45.41 45.19 45.01 44.92 44.87 44.87 44.92 44.87 44.69 44.46 44.64 44.65 44.65 44.70 44.88 45.19 45.51 45.82 46.22 46.63 46.99 47.07 46.72 46.27 45.88 45.62 45.31 45.40 45.53 45.49 45.14 44.78 44.43 44.08 44.26 44.56 44.86 44.99 45.13 45.18 45.00 44.69 44.56
45.99 46.08 46.17 46.35 46.44 46.44 46.53 46.80 46.80 46.67 46.40 45.95 45.59 45.41 45.19 44.96 44.78 44.65 44.51 44.33 44.19 44.28 44.37 44.29 44.11 44.02 43.93 43.75 43.52 43.43 43.39 43.44 43.30 43.39 43.39 43.25 43.08 42.96 42.93 42.93 42.93 43.11 43.33 43.92 44.27 44.63 44.82 45.00 44.73 44.56 44.52 44.31 43.92 43.83 44.00 44.18 43.91 43.33 42.68 42.23 42.07 42.36 42.86 43.50 43.86 43.83 43.40 42.87 42.59
44.10 43.92 43.83 43.88 44.06 44.11 44.24 44.51 44.60 44.42 44.06 43.74 43.74 43.70 43.75 43.93 43.61 43.48 43.39 43.07 43.07 43.21 43.22 43.03 42.91 42.82 42.64 42.54 42.36 42.22 42.17 42.04 41.86 41.81 41.86 41.82 41.66 41.71 41.72 41.79 41.48 41.52 41.74 42.02 42.24 42.23 42.12 42.04 41.61 41.35 41.23 41.12 40.83 40.72 40.84 41.32 41.30 40.94 40.27 39.72 39.61 39.96 40.52 41.07 41.37 41.30 41.10 40.70 40.49
42.84 42.75 42.53 42.30 42.44 42.49 42.50 42.54 42.54 42.45 42.27 42.12 42.12 42.39 42.71 43.03 42.58 42.36 42.32 42.22 42.37 42.29 42.16 42.16 42.01 41.76 41.44 41.34 41.39 41.24 41.15 41.10 40.92 40.84 40.84 40.92 40.66 40.62 40.63 40.60 40.45 40.47 40.53 40.68 40.61 40.53 40.32 39.69 39.00 38.57 38.26 38.05 37.97 38.08 38.38 38.78 38.65 38.39 38.07 37.76 38.09 38.35 38.59 38.84 39.36 39.47 39.39 39.33 39.34
41.94 41.85 41.76 41.49 41.59 41.64 41.46 41.19 41.01 40.83 40.64 40.46 40.64 41.05 41.37 41.60 41.34 41.25 41.22 41.20 41.09 40.95 41.06 41.27 41.16 40.87 40.57 40.38 40.44 40.45 40.40 40.13 39.89 39.90 39.83 39.57 39.43 39.43 39.43 39.42 39.58 39.44 39.27 39.29 38.98 38.80 38.61 38.17 37.64 37.41 37.25 36.68 36.71 36.86 37.08 37.29 37.11 36.93 36.69 36.56 37.04 37.11 37.00 37.02 37.61 37.87 37.94 38.00 38.21
40.91 40.91 40.87 40.69 40.79 40.70 40.48 39.93 39.75 39.57 39.48 39.25 39.52 39.70 39.89 40.09 40.25 40.27 40.24 40.01 39.84 39.85 40.03 40.40 40.38 40.22 40.00 39.86 39.75 39.67 39.51 39.24 38.98 38.82 38.57 38.09 38.15 38.31 38.33 38.35 38.34 38.07 37.87 37.76 37.52 37.20 36.86 36.47 36.15 35.68 35.45 35.44 35.48 35.55 35.68 35.96 35.88 35.75 35.63 35.53 35.47 35.31 35.15 34.98 35.38 35.96 36.38 36.55 36.68
40.15 40.06 39.97 39.94 39.95 39.65 39.30 38.87 38.73 38.60 38.51 38.51 38.82 38.79 38.69 38.98 39.31 39.33 39.11 38.94 38.95 38.90 39.00 39.27 39.52 39.44 39.31 39.27 39.25 39.15 38.89 38.74 38.42 38.01 37.51 37.08 37.11 37.06 37.04 36.81 36.57 36.38 36.11 36.06 36.01 35.75 35.45 35.21 34.90 34.53 34.08 33.90 34.14 34.31 34.37 34.49 34.23 34.11 34.06 33.92 34.06 33.91 33.86 33.92 34.25 34.74 35.17 35.34 35.30
39.37 39.28 39.28 39.30 39.08 38.75 38.30 38.04 37.90 37.80 37.63 37.64 37.85 37.78 37.65 37.64 38.07 38.22 38.09 37.71 37.73 37.87 38.03 38.20 38.57 38.68 38.65 38.63 38.56 38.36 38.15 38.05 37.77 37.27 36.87 36.62 36.60 36.39 35.97 35.63 35.39 35.10 34.93 34.83 34.74 34.64 34.45 34.06 33.85 33.53 33.22 32.96 32.93 33.07 33.32 33.38 33.13 32.98 32.85 32.71 32.64 32.62 32.60 32.71 33.20 33.68 34.02 34.09 34.10
38.44 38.48 38.49 38.44 38.12 37.87 37.55 37.43 37.41 37.22 37.09 37.10 37.08 36.92 36.66 36.56 36.86 37.00 36.91 36.38 36.49 36.82 37.07 37.05 37.38 37.64 37.73 37.89 37.79 37.59 37.42 37.31 37.03 36.71 36.38 36.07 35.95 35.71 35.43 35.24 34.98 34.68 34.36 34.10 33.98 33.87 33.72 33.44 33.35 33.22 32.99 32.68 32.53 32.62 32.67 32.68 32.54 32.43 32.26 32.20 31.95 31.86 31.89 31.98 32.29 32.66 32.89 32.90 33.01
37.36 37.50 37.59 37.47 37.25 37.09 36.96 36.80 36.86 36.85 36.77 36.69 36.54 36.23 35.98 35.81 35.97 35.94 35.78 35.45 35.58 35.75 35.84 35.92 36.17 36.41 36.75 37.19 37.09 37.05 37.11 37.06 36.85 36.57 36.20 35.83 35.50 35.22 35.02 34.82 34.65 34.50 34.14 33.79 33.45 33.20 33.08 33.08 33.04 32.88 32.71 32.54 32.37 32.26 32.23 32.17 32.05 31.85 31.70 31.60 31.49 31.47 31.51 31.63 31.65 31.86 32.13 32.35 32.46
36.05 36.26 36.51 36.49 36.30 36.29 36.24 36.23 36.38 36.32 36.16 35.98 35.88 35.77 35.64 35.52 35.39 35.23 35.09 34.84 34.71 34.65 34.73 34.90 35.19 35.43 35.66 36.05 36.27 36.41 36.49 36.30 36.15 35.96 35.65 35.42 35.22 35.01 34.68 34.47 34.37 34.20 33.93 33.44 32.92 32.46 32.30 32.41 32.41 32.48 32.43 32.24 31.96 31.88 31.71 31.66 31.43 31.23 30.99 30.93 30.84 30.82 30.85 31.15 31.09 31.26 31.53 31.92 31.96
35.08 35.20 35.35 35.39 35.24 35.22 35.26 35.30 35.36 35.31 35.24 35.19 35.23 35.12 35.11 35.02 34.75 34.53 34.39 34.36 33.93 33.64 33.63 33.85 34.40 34.80 34.95 35.09 35.48 35.77 35.74 35.33 35.16 35.00 34.88 34.78 34.74 34.52 34.23 34.08 33.95 33.81 33.53 33.07 32.51 32.06 31.87 31.85 31.90 31.95 31.92 31.76 31.50 31.35 31.17 31.01 30.79 30.47 30.31 30.17 30.06 30.07 30.00 30.11 30.32 30.55 30.85 31.22 31.42
34.04 34.19 34.21 34.25 34.11 34.15 34.23 34.30 34.11 34.01 33.93 34.11 34.28 34.17 34.01 33.98 33.84 33.70 33.65 33.61 33.64 33.40 33.25 33.33 33.72 34.15 34.52 34.60 34.86 35.13 35.17 34.76 34.61 34.52 34.46 34.49 34.27 34.02 33.65 33.46 33.28 33.23 33.02 32.76 32.18 31.89 31.63 31.62 31.51 31.49 31.42 31.24 31.05 30.86 30.68 30.50 30.20 29.96 29.72 29.57 29.48 29.41 29.42 29.46 29.60 29.77 29.92 30.19 30.36
32.96 32.97 33.01 33.20 33.17 33.12 33.00 33.01 32.91 32.86 32.83 32.90 32.93 32.83 32.77 32.93 32.84 32.72 32.51 32.47 32.89 32.90 32.79 32.80 32.84 33.20 33.58 33.90 33.99 34.18 34.34 34.51 34.36 34.31 34.31 34.23 33.87 33.51 33.20 33.05 32.89 32.70 32.47 32.18 31.80 31.56 31.44 31.31 31.22 31.20 31.12 30.93 30.64 30.39 30.15 30.05 29.73 29.54 29.38 29.29 29.03 28.95 28.97 29.00 29.05 29.08 29.12 29.23 29.52
32.07 32.03 32.11 32.33 32.22 32.20 32.06 32.19 32.16 32.09 31.92 31.87 31.78 31.79 31.77 31.73 31.65 31.56 31.49 31.58 31.59 31.50 31.44 31.64 31.87 32.16 32.53 33.03 33.07 33.11 33.35 34.04 34.02 34.01 34.05 33.95 33.61 33.42 33.13 32.96 32.67 32.36 32.00 31.69 31.37 31.16 31.08 31.00 30.93 30.87 30.80 30.60 30.31 30.06 29.82 29.58 29.28 29.14 29.04 28.95 28.68 28.52 28.43 28.40 28.40 28.32 28.43 28.51 28.95
31.25 31.33 31.41 31.46 31.45 31.50 31.53 31.63 31.66 31.45 31.20 31.07 30.95 30.84 30.75 30.61 30.60 30.63 30.72 30.84 30.62 30.38 30.13 30.29 30.70 31.19 31.66 32.19 32.52 32.60 32.77 33.17 33.18 33.49 33.78 33.94 33.68 33.51 33.37 33.01 32.39 31.90 31.60 31.46 31.14 30.87 30.75 30.58 30.48 30.41 30.32 30.10 29.90 29.80 29.70 29.39 29.18 28.96 28.73 28.53 28.28 28.18 28.08 27.96 27.98 27.95 27.98 28.11 28.56
30.69 30.82 30.86 30.88 31.05 31.13 31.16 31.04 30.89 30.70 30.44 30.23 30.20 30.06 29.97 29.83 29.95 29.95 29.88 29.75 29.63 29.41 29.34 29.53 29.88 30.24 30.79 31.44 31.95 32.19 32.18 32.15 32.12 32.44 32.84 33.19 33.09 33.01 32.92 32.71 32.40 32.02 31.56 31.41 31.27 31.02 30.65 30.25 30.07 30.00 29.94 29.68 29.45 29.34 29.26 29.08 29.10 28.94 28.68 28.50 28.39 28.26 28.27 28.26 28.27 28.36 28.31 28.12 28.44
30.31 30.35 30.35 30.22 30.19 30.24 30.13 30.12 29.87 29.78 29.60 29.49 29.44 29.39 29.30 29.17 29.22 29.14 28.93 28.76 28.67 28.63 28.77 29.05 29.26 29.63 30.03 30.61 31.07 31.37 31.54 31.56 31.44 31.54 31.65 31.94 32.23 32.29 32.30 32.34 32.30 32.15 32.16 32.27 32.24 31.88 31.28 30.40 29.95 29.83 29.84 29.71 29.26 28.87 28.52 28.31 28.51 28.46 28.41 28.34 28.49 28.58 28.71 28.78 28.65 28.58 28.41 28.18 28.32
29.78 29.79 29.66 29.38 29.19 29.13 29.11 29.13 28.92 28.74 28.68 28.78 28.68 28.65 28.49 28.33 28.32 28.31 28.19 28.01 28.01 28.17 28.35 28.62 28.94 29.23 29.59 29.82 30.14 30.38 30.50 30.67 30.98 31.09 31.12 31.17 31.21 31.55 32.10 32.65 33.06 33.68 34.46 35.06 35.12 34.44 33.39 32.14 30.93 30.12 29.63 29.47 28.95 28.50 28.12 27.79 27.74 27.75 27.92 28.02 28.27 28.49 28.61 28.70 28.77 28.74 28.63 28.35 28.10
29.09 29.04 28.91 28.73 28.51 28.23 28.10 28.04 28.00 27.94 27.86 27.85 27.65 27.57 27.53 27.50 27.53 27.42 27.25 27.14 27.27 27.56 27.93 28.32 28.95 29.43 29.60 29.20 29.37 29.50 29.59 29.78 30.12 30.51 30.89 31.01 30.91 31.26 31.84 32.36 33.19 34.16 35.28 36.76 36.61 36.03 35.19 34.25 33.00 31.36 29.84 28.96 28.80 28.45 28.07 27.57 27.32 27.23 27.26 27.34 27.61 27.74 27.83 27.95 28.11 28.34 28.55 28.57 28.19
28.14 28.15 28.14 28.27 27.90 27.52 27.25 27.16 27.15 27.07 27.01 26.94 26.72 26.66 26.71 26.89 26.87 26.71 26.51 26.37 26.60 26.97 27.38 27.71 28.29 29.11 29.30 28.44 28.26 28.41 28.66 29.10 29.43 29.85 30.40 30.91 31.17 31.39 31.65 31.94 32.96 34.74 36.55 37.66 37.29 36.63 35.92 35.19 34.28 32.76 30.81 28.81 28.54 28.29 28.07 27.60 27.20 26.97 26.84 26.80 26.74 26.80 26.89 26.91 27.15 27.57 27.83 27.98 28.00
27.13 27.21 27.24 27.31 26.99 26.82 26.68 26.57 26.26 26.09 26.02 25.98 26.01 26.04 26.15 26.26 26.15 26.12 26.04 26.07 26.25 26.47 26.73 26.91 27.38 27.96 28.15 27.76 27.40 27.25 27.63 28.28 29.05 29.77 30.40 31.08 31.46 31.70 31.96 32.43 32.83 34.81 36.94 38.13 37.40 36.78 36.20 35.58 35.01 33.97 32.29 29.71 28.14 27.65 27.70 27.54 27.39 27.10 26.86 26.63 26.44 26.43 26.43 26.53 26.67 26.82 26.95 26.93 27.42
26.71 26.69 26.57 26.15 26.11 26.08 26.05 25.72 25.44 25.36 25.36 25.37 25.44 25.57 25.73 25.67 25.56 25.53 25.53 25.54 25.54 25.68 25.85 26.21 26.80 26.94 26.80 26.67 26.60 26.78 26.96 27.43 28.31 29.29 30.13 30.78 31.50 32.18 33.20 34.52 36.16 37.39 37.94 37.70 37.14 36.61 36.07 35.62 35.24 34.78 33.62 31.57 28.86 27.78 27.61 27.56 27.39 27.18 26.93 26.60 26.37 26.29 26.40 26.42 26.40 26.32 26.35 26.36 26.74
26.43 26.29 26.00 25.68 25.51 25.34 25.11 24.98 25.11 25.19 25.26 25.28 25.16 25.05 25.02 24.90 24.79 24.79 24.80 24.82 24.76 24.99 25.27 25.47 25.84 25.75 25.58 25.74 26.11 26.37 26.52 26.85 27.56 28.30 29.10 29.85 30.73 31.50 32.87 35.12 36.21 36.98 37.37 37.47 36.92 36.43 35.93 35.51 35.31 34.99 34.15 32.48 29.40 27.61 26.87 27.02 26.93 26.89 26.84 26.47 26.21 26.08 26.16 26.27 26.10 25.95 25.92 26.08 26.36
25.92 25.73 25.44 25.12 24.81 24.71 24.65 24.75 24.95 25.06 25.05 25.02 24.70 24.40 24.14 23.84 23.71 23.75 23.93 24.14 24.53 25.08 25.49 25.25 25.02 24.94 25.02 25.46 25.63 25.73 25.88 26.36 26.92 27.40 27.88 28.41 29.63 30.25 30.93 32.51 34.59 36.23 37.16 37.17 36.76 36.38 36.02 35.67 35.38 34.88 34.02 32.53 29.71 27.61 26.47 26.58 26.47 26.43 26.44 26.30 26.04 25.93 25.96 26.24 26.10 25.92 25.73 25.70 26.01
25.39 25.22 24.91 24.54 24.32 24.31 24.39 24.56 24.62 24.68 24.69 24.43 24.15 23.78 23.35 22.96 22.98 23.12 23.39 23.75 24.05 24.39 24.68 24.69 24.49 24.55 24.68 25.06 25.26 25.39 25.48 25.73 26.18 26.67 27.19 27.40 27.90 28.73 29.73 31.19 32.94 35.30 36.83 36.76 36.58 36.38 36.12 35.77 35.31 34.65 33.76 32.38 29.64 27.15 25.74 26.15 26.01 26.01 25.88 25.67 25.44 25.56 25.73 26.12 26.02 25.75 25.63 25.63 25.77
24.93 24.69 24.42 24.03 23.82 23.79 23.89 24.05 24.11 24.07 24.00 23.71 23.41 23.10 22.84 22.65 22.82 22.98 23.13 23.40 23.39 23.38 23.36 23.54 23.55 23.67 23.92 24.31 24.71 25.06 25.22 25.41 25.50 26.16 26.86 27.30 27.76 28.45 29.26 30.30 31.97 34.81 36.86 36.52 36.60 36.43 36.05 35.56 35.03 34.32 33.51 32.26 29.22 26.67 25.41 25.92 25.95 25.90 25.78 25.73 25.59 25.47 25.48 25.62 25.77 25.70 25.63 25.63 25.91
24.10 23.89 23.61 23.36 23.23 23.17 23.15 23.21 23.25 23.20 23.07 22.82 22.64 22.55 22.56 22.61 22.70 22.72 22.96 23.23 23.03 22.83 22.77 22.77 22.83 22.98 23.27 23.73 24.22 24.73 25.21 25.64 25.21 25.24 25.61 26.44 27.36 27.96 28.37 28.63 30.73 34.70 37.69 37.12 36.84 36.34 35.72 35.01 34.40 33.87 33.14 31.93 28.45 26.36 25.53 25.88 25.95 25.91 25.84 26.01 26.07 25.95 25.82 25.73 25.68 25.54 25.48 25.63 26.15
23.14 22.94 22.72 22.48 22.44 22.40 22.41 22.45 22.54 22.44 22.27 22.04 21.91 21.96 22.10 22.26 22.38 22.66 23.03 23.53 23.11 22.65 22.32 22.38 22.55 22.66 22.91 23.27 23.81 24.20 24.57 24.73 24.96 25.33 25.76 26.21 26.77 27.29 27.55 27.64 29.63 34.42 38.30 37.61 36.65 35.83 35.02 34.41 33.95 33.55 32.75 31.08 27.82 26.18 25.63 25.87 25.93 25.88 25.97 26.33 26.47 26.30 26.01 25.91 25.92 25.73 25.67 25.88 26.50
22.24 22.18 22.00 21.77 21.75 21.72 21.75 21.79 21.81 21.74 21.49 21.28 21.23 21.33 21.41 21.71 21.96 22.53 23.23 23.79 23.01 22.32 21.96 21.99 22.14 22.16 22.16 22.31 22.77 23.36 23.71 23.58 24.56 25.40 25.98 26.42 26.19 26.25 26.53 26.98 28.44 33.31 37.53 37.24 35.99 35.08 34.53 34.04 33.72 33.39 32.42 30.21 27.84 26.62 26.14 26.12 26.16 26.03 26.10 26.50 26.50 26.18 25.97 25.78 25.84 25.80 25.81 26.19 27.29
21.39 21.51 21.37 21.20 21.17 21.15 21.20 21.24 21.14 20.93 20.66 20.55 20.59 20.72 20.78 20.97 21.38 22.10 22.80 23.24 22.25 21.82 21.68 21.56 21.38 21.18 21.05 21.06 21.25 21.71 22.40 23.26 24.33 25.16 25.81 26.38 26.11 25.86 25.99 26.43 27.06 31.31 35.81 37.08 35.94 35.07 34.48 34.02 33.65 33.08 31.89 29.61 27.76 27.07 26.80 26.62 26.50 26.39 26.35 26.29 26.13 25.93 25.75 25.71 25.64 25.57 25.67 26.05 28.33
20.96 21.14 21.17 20.84 20.72 20.64 20.65 20.72 20.50 20.19 19.98 19.96 20.10 20.29 20.43 20.62 20.90 21.53 22.23 22.75 21.56 21.20 21.17 21.09 20.92 20.80 20.79 20.77 20.75 20.92 21.56 22.82 24.33 24.84 25.05 25.45 26.08 26.20 26.08 25.84 26.51 29.91 33.89 36.70 36.15 35.64 35.15 34.60 34.03 33.20 31.78 29.43 27.77 27.20 27.16 27.05 26.81 26.59 26.32 26.04 25.94 25.71 25.53 25.59 25.52 25.49 25.64 25.84 29.07
20.61 20.81 20.76 20.52 20.23 20.04 19.93 19.83 19.62 19.47 19.47 19.58 19.72 19.91 20.11 20.30 20.56 21.02 21.41 21.35 20.54 20.44 20.56 20.51 20.69 21.17 21.65 22.15 21.45 21.10 21.11 21.66 23.14 24.26 24.92 25.14 26.76 27.54 27.28 25.93 26.43 28.93 32.31 35.31 35.58 35.67 35.59 35.49 34.81 33.74 32.14 29.74 27.76 27.08 27.10 27.12 26.83 26.36 25.86 25.55 25.53 25.41 25.32 25.31 25.08 25.24 25.52 25.66 28.71
20.23 20.30 20.31 20.05 19.83 19.61 19.39 19.10 18.89 18.91 19.08 19.35 19.41 19.66 19.93 20.33 20.54 20.57 20.37 19.93 19.60 19.63 19.79 19.79 20.26 21.44 22.63 23.39 21.79 21.06 20.83 20.99 21.53 22.88 24.43 25.62 27.28 28.33 28.37 26.61 26.67 28.19 30.85 34.06 34.94 35.18 35.31 35.67 35.47 34.46 32.67 30.01 27.93 27.26 27.14 27.03 27.05 26.51 25.90 25.45 25.19 25.13 25.13 25.12 25.02 25.17 25.43 25.56 27.27
20.03 20.03 19.96 19.63 19.35 19.19 19.06 18.72 18.53 18.68 18.89 19.06 19.35 20.02 20.64 20.77 20.09 19.69 19.37 19.09 19.10 19.24 19.35 19.58 20.00 21.08 22.30 23.19 21.82 21.03 20.76 20.90 21.27 22.01 23.22 24.73 25.83 26.89 27.45 26.70 26.98 27.76 29.41 32.52 34.30 34.74 34.67 34.87 35.14 34.73 33.37 30.97 28.69 27.59 27.26 27.15 27.45 27.03 26.26 25.65 25.16 24.81 24.75 24.91 25.30 25.48 25.57 25.61 26.12
MSLP
1011.57 1011.65 1011.69 1011.77 1011.89 1012.05 1012.25 1012.45 1012.57 1012.69 1012.85 1012.97 1013.09 1013.25 1013.37 1013.45 1013.57 1013.73 1013.77 1013.81 1013.89 1013.97 1014.09 1014.21 1014.29 1014.37 1014.37 1014.37 1014.29 1014.17 1014.17 1014.25 1014.33 1014.37 1014.41 1014.45 1014.45 1014.45 1014.49 1014.49 1014.57 1014.61 1014.73 1014.93 1015.05 1015.17 1015.17 1015.21 1015.25 1015.41 1015.57 1015.73 1015.89 1016.01 1016.17 1016.29 1016.37 1016.45 1016.53 1016.65 1016.81 1016.93 1017.01 1017.05 1017.17 1017.29 1017.33 1017.41 1017.49
1011.65 1011.73 1011.73 1011.85 1012.01 1012.17 1012.33 1012.53 1012.73 1012.85 1012.93 1013.05 1013.17 1013.33 1013.45 1013.57 1013.73 1013.89 1013.97 1014.01 1014.05 1014.13 1014.25 1014.37 1014.45 1014.53 1014.57 1014.57 1014.49 1014.41 1014.33 1014.37 1014.49 1014.57 1014.61 1014.65 1014.73 1014.77 1014.81 1014.85 1014.89 1014.97 1015.05 1015.17 1015.25 1015.29 1015.33 1015.33 1015.41 1015.57 1015.81 1016.01 1016.17 1016.33 1016.45 1016.57 1016.57 1016.69 1016.81 1016.97 1017.09 1017.17 1017.29 1017.37 1017.49 1017.57 1017.65 1017.73 1017.77
1011.69 1011.77 1011.93 1012.01 1012.17 1012.29 1012.53 1012.73 1012.85 1012.97 1013.05 1013.17 1013.33 1013.45 1013.57 1013.69 1013.85 1014.01 1014.13 1014.17 1014.21 1014.29 1014.41 1014.49 1014.57 1014.65 1014.69 1014.73 1014.73 1014.65 1014.57 1014.57 1014.69 1014.81 1014.85 1014.89 1014.97 1015.05 1015.13 1015.17 1015.25 1015.29 1015.29 1015.33 1015.45 1015.45 1015.45 1015.45 1015.57 1015.73 1016.01 1016.25 1016.45 1016.57 1016.69 1016.77 1016.85 1016.97 1017.13 1017.25 1017.33 1017.45 1017.49 1017.57 1017.73 1017.81 1017.85 1017.93 1018.01
1011.85 1012.01 1012.13 1012.25 1012.33 1012.49 1012.65 1012.81 1012.89 1013.01 1013.21 1013.41 1013.53 1013.65 1013.73 1013.81 1013.97 1014.17 1014.29 1014.33 1014.41 1014.49 1014.57 1014.61 1014.73 1014.77 1014.81 1014.85 1014.85 1014.85 1014.85 1014.81 1014.89 1015.01 1015.05 1015.13 1015.17 1015.29 1015.41 1015.49 1015.49 1015.53 1015.57 1015.57 1015.61 1015.61 1015.61 1015.65 1015.81 1016.05 1016.33 1016.57 1016.73 1016.77 1016.85 1017.01 1017.09 1017.25 1017.41 1017.53 1017.61 1017.65 1017.73 1017.81 1017.89 1017.97 1018.01 1018.13 1018.17
1012.09 1012.21 1012.33 1012.45 1012.57 1012.69 1012.77 1012.85 1012.97 1013.17 1013.37 1013.57 1013.69 1013.77 1013.89 1013.97 1014.09 1014.25 1014.37 1014.45 1014.57 1014.69 1014.73 1014.77 1014.85 1014.93 1015.01 1015.01 1015.01 1015.01 1015.05 1015.09 1015.13 1015.17 1015.29 1015.33 1015.45 1015.57 1015.65 1015.69 1015.69 1015.69 1015.73 1015.73 1015.77 1015.77 1015.81 1015.93 1016.17 1016.45 1016.73 1016.89 1016.93 1017.01 1017.13 1017.25 1017.37 1017.49 1017.61 1017.73 1017.81 1017.89 1017.93 1018.01 1018.09 1018.17 1018.25 1018.29 1018.37
1012.37 1012.53 1012.61 1012.69 1012.81 1012.89 1013.01 1013.05 1013.21 1013.37 1013.53 1013.69 1013.77 1013.89 1014.01 1014.09 1014.25 1014.37 1014.49 1014.61 1014.77 1014.85 1014.93 1014.97 1015.01 1015.05 1015.13 1015.17 1015.21 1015.29 1015.33 1015.41 1015.45 1015.45 1015.45 1015.57 1015.69 1015.77 1015.85 1015.89 1015.93 1015.93 1015.89 1015.93 1016.01 1016.05 1016.17 1016.29 1016.57 1016.77 1016.93 1017.01 1017.09 1017.25 1017.37 1017.45 1017.57 1017.69 1017.77 1017.89 1018.01 1018.09 1018.17 1018.21 1018.29 1018.37 1018.45 1018.45 1018.53
1012.69 1012.77 1012.85 1012.93 1013.05 1013.17 1013.29 1013.41 1013.49 1013.61 1013.73 1013.85 1013.93 1014.09 1014.21 1014.29 1014.45 1014.57 1014.73 1014.81 1014.93 1015.05 1015.13 1015.21 1015.25 1015.25 1015.29 1015.29 1015.41 1015.49 1015.61 1015.73 1015.77 1015.73 1015.73 1015.89 1015.93 1016.01 1016.13 1016.21 1016.21 1016.21 1016.21 1016.25 1016.29 1016.41 1016.49 1016.61 1016.77 1016.97 1017.05 1017.09 1017.29 1017.49 1017.65 1017.73 1017.77 1017.89 1018.01 1018.17 1018.29 1018.45 1018.49 1018.57 1018.57 1018.65 1018.69 1018.73 1018.73
1013.01 1013.09 1013.17 1013.21 1013.33 1013.49 1013.61 1013.73 1013.73 1013.81 1013.93 1014.13 1014.29 1014.41 1014.53 1014.57 1014.69 1014.77 1014.89 1015.01 1015.17 1015.25 1015.37 1015.45 1015.53 1015.49 1015.49 1015.49 1015.57 1015.73 1015.89 1015.97 1016.01 1016.01 1016.09 1016.17 1016.25 1016.37 1016.45 1016.53 1016.49 1016.49 1016.57 1016.61 1016.69 1016.73 1016.81 1016.85 1017.01 1017.17 1017.25 1017.33 1017.57 1017.77 1017.93 1017.97 1018.01 1018.13 1018.29 1018.45 1018.61 1018.73 1018.81 1018.85 1018.85 1018.89 1018.93 1019.01 1019.01
1013.33 1013.45 1013.53 1013.57 1013.73 1013.85 1013.93 1013.97 1013.97 1014.05 1014.25 1014.49 1014.61 1014.73 1014.81 1014.85 1014.89 1015.01 1015.09 1015.21 1015.37 1015.49 1015.57 1015.69 1015.73 1015.73 1015.73 1015.73 1015.85 1015.97 1016.09 1016.17 1016.25 1016.33 1016.41 1016.45 1016.53 1016.69 1016.77 1016.77 1016.77 1016.85 1016.93 1017.05 1017.05 1017.09 1017.17 1017.29 1017.41 1017.57 1017.65 1017.73 1017.93 1018.09 1018.21 1018.29 1018.33 1018.41 1018.57 1018.73 1018.93 1019.05 1019.13 1019.17 1019.21 1019.21 1019.21 1019.25 1019.29
1013.65 1013.73 1013.85 1013.93 1014.05 1014.17 1014.21 1014.21 1014.29 1014.41 1014.57 1014.81 1014.97 1015.01 1015.09 1015.13 1015.17 1015.25 1015.33 1015.45 1015.57 1015.69 1015.81 1015.89 1015.97 1015.97 1016.01 1016.01 1016.09 1016.17 1016.33 1016.41 1016.49 1016.57 1016.69 1016.77 1016.85 1016.97 1017.01 1017.01 1017.01 1017.17 1017.29 1017.41 1017.41 1017.45 1017.57 1017.69 1017.89 1018.01 1018.09 1018.17 1018.29 1018.41 1018.53 1018.61 1018.61 1018.73 1018.85 1019.05 1019.21 1019.33 1019.41 1019.45 1019.49 1019.45 1019.45 1019.45 1019.49
1013.97 1014.05 1014.13 1014.21 1014.37 1014.41 1014.45 1014.45 1014.61 1014.81 1015.01 1015.13 1015.25 1015.29 1015.37 1015.41 1015.45 1015.57 1015.61 1015.65 1015.73 1015.89 1016.01 1016.13 1016.17 1016.17 1016.21 1016.25 1016.29 1016.45 1016.53 1016.57 1016.73 1016.81 1016.93 1017.05 1017.17 1017.21 1017.29 1017.29 1017.37 1017.49 1017.69 1017.73 1017.73 1017.81 1017.93 1018.09 1018.25 1018.33 1018.45 1018.45 1018.53 1018.65 1018.73 1018.81 1018.85 1019.01 1019.17 1019.33 1019.49 1019.57 1019.65 1019.73 1019.73 1019.69 1019.69 1019.69 1019.65
1014.29 1014.41 1014.49 1014.57 1014.57 1014.61 1014.69 1014.77 1015.01 1015.17 1015.33 1015.45 1015.49 1015.57 1015.73 1015.73 1015.77 1015.77 1015.81 1015.89 1015.97 1016.13 1016.25 1016.33 1016.41 1016.45 1016.45 1016.45 1016.53 1016.61 1016.73 1016.81 1016.85 1016.97 1017.09 1017.21 1017.33 1017.45 1017.57 1017.65 1017.73 1017.89 1018.01 1018.09 1018.13 1018.17 1018.29 1018.45 1018.49 1018.57 1018.69 1018.73 1018.77 1018.85 1018.93 1018.97 1019.05 1019.25 1019.45 1019.61 1019.73 1019.85 1019.89 1019.93 1019.93 1019.89 1019.89 1019.85 1019.81
1014.61 1014.73 1014.81 1014.85 1014.85 1014.89 1015.01 1015.17 1015.33 1015.49 1015.61 1015.69 1015.77 1015.89 1016.01 1016.01 1016.01 1015.97 1016.01 1016.09 1016.21 1016.37 1016.49 1016.61 1016.69 1016.69 1016.65 1016.65 1016.73 1016.85 1016.89 1016.97 1017.01 1017.09 1017.21 1017.37 1017.57 1017.77 1017.93 1018.05 1018.17 1018.25 1018.33 1018.41 1018.45 1018.53 1018.61 1018.73 1018.77 1018.85 1018.93 1019.01 1019.05 1019.09 1019.09 1019.13 1019.25 1019.45 1019.69 1019.85 1019.97 1020.05 1020.13 1020.17 1020.13 1020.05 1020.01 1019.97 1020.01
1014.93 1015.01 1015.09 1015.17 1015.17 1015.25 1015.33 1015.53 1015.69 1015.81 1015.89 1015.97 1016.09 1016.17 1016.21 1016.21 1016.17 1016.17 1016.21 1016.33 1016.45 1016.57 1016.73 1016.85 1016.93 1016.93 1016.85 1016.85 1016.97 1017.01 1017.09 1017.13 1017.17 1017.29 1017.41 1017.57 1017.81 1018.01 1018.21 1018.37 1018.45 1018.57 1018.61 1018.65 1018.73 1018.73 1018.85 1018.97 1019.05 1019.13 1019.17 1019.29 1019.37 1019.41 1019.37 1019.37 1019.49 1019.69 1019.89 1020.01 1020.13 1020.21 1020.29 1020.25 1020.25 1020.21 1020.17 1020.13 1020.17
1015.29 1015.33 1015.41 1015.45 1015.49 1015.57 1015.73 1015.85 1016.01 1016.17 1016.25 1016.29 1016.37 1016.41 1016.37 1016.37 1016.41 1016.41 1016.45 1016.57 1016.69 1016.81 1016.89 1017.01 1017.13 1017.17 1017.13 1017.17 1017.21 1017.29 1017.29 1017.33 1017.37 1017.49 1017.65 1017.81 1018.01 1018.21 1018.41 1018.57 1018.73 1018.81 1018.85 1018.89 1018.89 1018.93 1019.05 1019.17 1019.29 1019.37 1019.45 1019.57 1019.69 1019.73 1019.73 1019.73 1019.81 1019.93 1020.09 1020.17 1020.25 1020.29 1020.33 1020.37 1020.37 1020.37 1020.33 1020.29 1020.33
1015.57 1015.65 1015.73 1015.77 1015.89 1015.97 1016.05 1016.21 1016.33 1016.45 1016.57 1016.61 1016.65 1016.61 1016.57 1016.57 1016.61 1016.65 1016.73 1016.77 1016.89 1017.01 1017.13 1017.21 1017.29 1017.29 1017.33 1017.45 1017.49 1017.53 1017.53 1017.57 1017.65 1017.73 1017.89 1018.05 1018.21 1018.41 1018.57 1018.73 1018.89 1019.01 1019.05 1019.05 1019.05 1019.13 1019.29 1019.45 1019.57 1019.73 1019.85 1019.97 1020.05 1020.13 1020.09 1020.05 1020.05 1020.17 1020.25 1020.37 1020.45 1020.45 1020.53 1020.57 1020.57 1020.57 1020.57 1020.53 1020.53
1015.89 1016.01 1016.05 1016.13 1016.21 1016.29 1016.41 1016.49 1016.65 1016.73 1016.81 1016.85 1016.89 1016.89 1016.89 1016.85 1016.89 1016.97 1017.01 1017.09 1017.17 1017.25 1017.33 1017.41 1017.45 1017.45 1017.53 1017.69 1017.77 1017.81 1017.85 1017.89 1017.93 1018.05 1018.17 1018.29 1018.45 1018.57 1018.77 1018.97 1019.13 1019.21 1019.25 1019.25 1019.29 1019.37 1019.53 1019.73 1019.97 1020.13 1020.25 1020.33 1020.41 1020.45 1020.41 1020.33 1020.29 1020.33 1020.45 1020.57 1020.65 1020.73 1020.81 1020.85 1020.85 1020.81 1020.77 1020.73 1020.73
1016.25 1016.33 1016.41 1016.45 1016.53 1016.61 1016.73 1016.81 1016.89 1016.97 1017.01 1017.09 1017.17 1017.17 1017.21 1017.17 1017.21 1017.29 1017.41 1017.45 1017.49 1017.53 1017.57 1017.65 1017.65 1017.69 1017.77 1017.89 1018.01 1018.09 1018.13 1018.17 1018.21 1018.29 1018.45 1018.57 1018.73 1018.85 1019.01 1019.25 1019.37 1019.45 1019.45 1019.49 1019.53 1019.65 1019.85 1020.09 1020.29 1020.45 1020.57 1020.61 1020.65 1020.65 1020.61 1020.57 1020.57 1020.61 1020.69 1020.81 1020.89 1021.01 1021.09 1021.09 1021.09 1021.05 1021.01 1020.97 1020.97
1016.57 1016.69 1016.73 1016.85 1016.93 1017.01 1017.05 1017.09 1017.17 1017.25 1017.29 1017.33 1017.41 1017.45 1017.53 1017.57 1017.61 1017.69 1017.77 1017.89 1017.89 1017.85 1017.85 1017.89 1017.89 1017.97 1018.01 1018.13 1018.25 1018.29 1018.37 1018.45 1018.49 1018.61 1018.73 1018.85 1019.01 1019.17 1019.33 1019.49 1019.61 1019.69 1019.73 1019.73 1019.85 1019.97 1020.13 1020.29 1020.49 1020.61 1020.69 1020.73 1020.81 1020.81 1020.85 1020.85 1020.85 1020.85 1020.97 1021.09 1021.17 1021.25 1021.29 1021.29 1021.29 1021.29 1021.21 1021.21 1021.21
1016.93 1017.01 1017.17 1017.25 1017.29 1017.29 1017.33 1017.37 1017.49 1017.57 1017.65 1017.65 1017.69 1017.73 1017.85 1018.01 1018.05 1018.13 1018.17 1018.29 1018.25 1018.21 1018.17 1018.17 1018.21 1018.25 1018.33 1018.41 1018.49 1018.57 1018.65 1018.73 1018.77 1018.89 1019.01 1019.17 1019.29 1019.45 1019.57 1019.69 1019.77 1019.89 1019.93 1020.01 1020.09 1020.21 1020.33 1020.49 1020.61 1020.73 1020.77 1020.85 1020.93 1021.01 1021.01 1021.05 1021.13 1021.17 1021.17 1021.29 1021.45 1021.49 1021.53 1021.49 1021.49 1021.45 1021.45 1021.45 1021.45
1017.29 1017.41 1017.49 1017.57 1017.53 1017.53 1017.57 1017.73 1017.89 1017.89 1017.89 1017.93 1017.97 1018.05 1018.17 1018.29 1018.41 1018.49 1018.57 1018.57 1018.57 1018.57 1018.53 1018.57 1018.57 1018.57 1018.65 1018.73 1018.77 1018.85 1018.93 1018.97 1019.05 1019.17 1019.29 1019.41 1019.53 1019.69 1019.77 1019.85 1019.93 1020.01 1020.13 1020.21 1020.29 1020.41 1020.53 1020.65 1020.77 1020.85 1020.97 1021.05 1021.17 1021.21 1021.25 1021.29 1021.29 1021.33 1021.41 1021.49 1021.61 1021.69 1021.73 1021.69 1021.69 1021.65 1021.61 1021.61 1021.57
1017.57 1017.73 1017.73 1017.73 1017.73 1017.77 1017.93 1018.09 1018.17 1018.17 1018.13 1018.17 1018.29 1018.37 1018.45 1018.53 1018.65 1018.77 1018.85 1018.85 1018.85 1018.85 1018.93 1018.93 1018.97 1019.01 1019.01 1019.01 1019.01 1019.09 1019.17 1019.25 1019.37 1019.45 1019.53 1019.61 1019.73 1019.85 1019.97 1020.01 1020.13 1020.17 1020.29 1020.37 1020.49 1020.61 1020.73 1020.85 1021.01 1021.09 1021.17 1021.33 1021.41 1021.45 1021.45 1021.45 1021.45 1021.45 1021.53 1021.61 1021.73 1021.81 1021.85 1021.89 1021.85 1021.81 1021.77 1021.73 1021.65
1017.89 1017.89 1017.97 1018.01 1018.01 1018.09 1018.21 1018.33 1018.41 1018.37 1018.41 1018.49 1018.57 1018.61 1018.65 1018.73 1018.89 1019.05 1019.13 1019.09 1019.09 1019.17 1019.29 1019.29 1019.29 1019.29 1019.29 1019.29 1019.29 1019.33 1019.41 1019.49 1019.57 1019.73 1019.81 1019.89 1019.97 1020.05 1020.13 1020.17 1020.25 1020.33 1020.45 1020.57 1020.73 1020.85 1020.93 1021.05 1021.21 1021.33 1021.45 1021.57 1021.61 1021.65 1021.65 1021.57 1021.57 1021.57 1021.65 1021.73 1021.81 1021.89 1021.93 1021.93 1021.93 1021.89 1021.77 1021.73 1021.65
1018.13 1018.17 1018.21 1018.29 1018.33 1018.45 1018.53 1018.57 1018.57 1018.61 1018.69 1018.81 1018.85 1018.85 1018.89 1019.05 1019.17 1019.29 1019.33 1019.33 1019.37 1019.45 1019.53 1019.57 1019.57 1019.57 1019.57 1019.57 1019.61 1019.61 1019.65 1019.73 1019.81 1019.89 1020.01 1020.13 1020.21 1020.29 1020.33 1020.41 1020.45 1020.53 1020.65 1020.77 1020.85 1020.97 1021.09 1021.21 1021.41 1021.57 1021.69 1021.73 1021.77 1021.77 1021.73 1021.73 1021.73 1021.77 1021.85 1021.89 1021.93 1021.93 1021.93 1021.93 1021.89 1021.77 1021.73 1021.73 1021.69
1018.33 1018.41 1018.53 1018.61 1018.69 1018.77 1018.85 1018.85 1018.85 1018.89 1018.97 1019.05 1019.09 1019.13 1019.17 1019.29 1019.41 1019.45 1019.49 1019.49 1019.57 1019.69 1019.73 1019.73 1019.73 1019.73 1019.81 1019.89 1019.93 1019.97 1019.97 1019.97 1020.01 1020.05 1020.17 1020.33 1020.45 1020.53 1020.53 1020.53 1020.53 1020.57 1020.61 1020.73 1020.89 1021.05 1021.17 1021.37 1021.57 1021.69 1021.77 1021.85 1021.89 1021.89 1021.89 1021.93 1021.97 1022.01 1022.05 1022.05 1022.05 1022.01 1021.89 1021.89 1021.81 1021.77 1021.77 1021.77 1021.73
1018.65 1018.73 1018.85 1019.01 1019.05 1019.09 1019.13 1019.17 1019.17 1019.21 1019.25 1019.29 1019.33 1019.41 1019.49 1019.57 1019.61 1019.61 1019.65 1019.73 1019.85 1019.89 1019.93 1019.97 1020.01 1020.01 1020.09 1020.17 1020.21 1020.25 1020.25 1020.29 1020.29 1020.29 1020.33 1020.45 1020.61 1020.65 1020.65 1020.61 1020.57 1020.61 1020.65 1020.73 1020.93 1021.13 1021.33 1021.49 1021.61 1021.77 1021.89 1021.93 1021.93 1021.97 1022.01 1022.13 1022.17 1022.21 1022.21 1022.17 1022.13 1022.01 1021.93 1021.89 1021.85 1021.85 1021.85 1021.85 1021.85
1019.01 1019.17 1019.29 1019.33 1019.41 1019.45 1019.49 1019.45 1019.45 1019.49 1019.53 1019.57 1019.61 1019.69 1019.73 1019.77 1019.89 1019.89 1019.93 1020.01 1020.09 1020.17 1020.17 1020.21 1020.29 1020.33 1020.41 1020.41 1020.45 1020.45 1020.45 1020.45 1020.45 1020.45 1020.49 1020.57 1020.65 1020.69 1020.69 1020.73 1020.73 1020.69 1020.73 1020.85 1021.01 1021.21 1021.41 1021.57 1021.73 1021.85 1021.93 1022.01 1022.05 1022.09 1022.17 1022.21 1022.25 1022.25 1022.21 1022.17 1022.17 1022.09 1022.01 1022.01 1022.01 1022.01 1022.01 1022.01 1021.97
1019.45 1019.57 1019.65 1019.65 1019.73 1019.85 1019.89 1019.85 1019.77 1019.77 1019.85 1019.89 1019.89 1019.97 1020.01 1020.05 1020.05 1020.13 1020.21 1020.29 1020.33 1020.41 1020.45 1020.57 1020.61 1020.65 1020.69 1020.69 1020.69 1020.65 1020.61 1020.57 1020.57 1020.57 1020.57 1020.61 1020.69 1020.73 1020.77 1020.77 1020.77 1020.77 1020.81 1020.93 1021.13 1021.29 1021.49 1021.61 1021.73 1021.85 1021.97 1022.09 1022.17 1022.21 1022.21 1022.25 1022.21 1022.21 1022.21 1022.17 1022.17 1022.17 1022.17 1022.21 1022.21 1022.21 1022.21 1022.17 1022.13
1019.81 1019.89 1019.93 1019.97 1020.09 1020.17 1020.17 1020.09 1020.09 1020.13 1020.17 1020.21 1020.25 1020.29 1020.29 1020.29 1020.29 1020.41 1020.49 1020.57 1020.57 1020.69 1020.77 1020.89 1020.93 1020.93 1020.93 1020.97 1020.97 1020.89 1020.81 1020.73 1020.73 1020.69 1020.65 1020.65 1020.69 1020.77 1020.81 1020.77 1020.77 1020.85 1020.93 1021.09 1021.25 1021.45 1021.57 1021.69 1021.81 1021.89 1021.97 1022.09 1022.17 1022.25 1022.25 1022.25 1022.25 1022.29 1022.29 1022.29 1022.37 1022.37 1022.37 1022.41 1022.41 1022.41 1022.37 1022.29 1022.21
1020.09 1020.13 1020.17 1020.25 1020.37 1020.41 1020.37 1020.33 1020.37 1020.41 1020.45 1020.45 1020.45 1020.45 1020.49 1020.53 1020.61 1020.69 1020.77 1020.85 1020.97 1021.09 1021.17 1021.21 1021.21 1021.17 1021.21 1021.21 1021.17 1021.09 1021.05 1021.01 1020.97 1020.89 1020.85 1020.85 1020.85 1020.93 1020.93 1020.85 1020.89 1020.97 1021.13 1021.25 1021.41 1021.53 1021.61 1021.73 1021.85 1021.93 1022.01 1022.13 1022.21 1022.29 1022.33 1022.37 1022.37 1022.41 1022.45 1022.49 1022.57 1022.57 1022.57 1022.53 1022.53 1022.45 1022.45 1022.37 1022.29
1020.33 1020.41 1020.45 1020.53 1020.57 1020.61 1020.65 1020.61 1020.61 1020.65 1020.69 1020.73 1020.73 1020.73 1020.77 1020.85 1021.01 1021.09 1021.17 1021.25 1021.37 1021.45 1021.49 1021.45 1021.41 1021.41 1021.45 1021.45 1021.37 1021.33 1021.29 1021.29 1021.17 1021.17 1021.13 1021.13 1021.13 1021.17 1021.17 1021.17 1021.13 1021.17 1021.25 1021.33 1021.45 1021.57 1021.69 1021.77 1021.89 1022.01 1022.09 1022.17 1022.29 1022.45 1022.49 1022.57 1022.57 1022.61 1022.65 1022.69 1022.69 1022.69 1022.69 1022.61 1022.57 1022.53 1022.45 1022.41 1022.29
1020.69 1020.73 1020.73 1020.81 1020.89 1020.93 1020.93 1020.89 1020.97 1021.01 1021.01 1021.01 1021.05 1021.09 1021.17 1021.29 1021.45 1021.57 1021.61 1021.69 1021.73 1021.73 1021.69 1021.61 1021.57 1021.57 1021.61 1021.61 1021.57 1021.57 1021.53 1021.45 1021.45 1021.45 1021.45 1021.41 1021.37 1021.37 1021.37 1021.41 1021.33 1021.29 1021.33 1021.45 1021.53 1021.65 1021.77 1021.89 1022.01 1022.13 1022.25 1022.37 1022.45 1022.57 1022.65 1022.69 1022.73 1022.73 1022.77 1022.77 1022.77 1022.77 1022.73 1022.61 1022.57 1022.53 1022.49 1022.41 1022.29
1021.01 1021.01 1021.05 1021.17 1021.21 1021.25 1021.29 1021.29 1021.33 1021.33 1021.37 1021.41 1021.45 1021.49 1021.61 1021.73 1021.85 1021.89 1021.97 1022.01 1022.01 1021.93 1021.89 1021.89 1021.89 1021.89 1021.89 1021.89 1021.85 1021.77 1021.73 1021.73 1021.73 1021.73 1021.69 1021.61 1021.57 1021.57 1021.57 1021.57 1021.57 1021.45 1021.41 1021.57 1021.65 1021.77 1021.89 1022.05 1022.17 1022.29 1022.37 1022.49 1022.57 1022.73 1022.77 1022.73 1022.77 1022.77 1022.81 1022.81 1022.81 1022.81 1022.77 1022.73 1022.61 1022.57 1022.53 1022.45 1022.37
1021.45 1021.41 1021.45 1021.49 1021.57 1021.57 1021.61 1021.65 1021.69 1021.69 1021.69 1021.73 1021.81 1021.89 1022.01 1022.05 1022.09 1022.17 1022.21 1022.25 1022.25 1022.21 1022.21 1022.21 1022.21 1022.21 1022.21 1022.17 1022.05 1022.01 1021.97 1021.93 1021.97 1021.93 1021.89 1021.81 1021.77 1021.73 1021.73 1021.81 1021.77 1021.53 1021.45 1021.65 1021.77 1021.93 1022.09 1022.21 1022.29 1022.37 1022.45 1022.57 1022.69 1022.77 1022.81 1022.77 1022.81 1022.85 1022.85 1022.85 1022.85 1022.85 1022.81 1022.73 1022.69 1022.61 1022.53 1022.45 1022.41
1021.77 1021.77 1021.81 1021.85 1021.89 1021.89 1021.89 1021.93 1021.97 1021.97 1022.01 1022.01 1022.17 1022.25 1022.29 1022.33 1022.41 1022.45 1022.45 1022.45 1022.45 1022.45 1022.45 1022.49 1022.45 1022.45 1022.45 1022.37 1022.29 1022.25 1022.17 1022.17 1022.17 1022.17 1022.09 1022.01 1021.93 1021.89 1021.89 1021.97 1021.97 1021.73 1021.57 1021.77 1021.93 1022.09 1022.21 1022.29 1022.37 1022.45 1022.49 1022.57 1022.73 1022.81 1022.81 1022.85 1022.85 1022.85 1022.85 1022.85 1022.85 1022.85 1022.77 1022.73 1022.65 1022.57 1022.57 1022.45 1022.37
1022.09 1022.05 1022.05 1022.09 1022.13 1022.17 1022.17 1022.21 1022.25 1022.25 1022.29 1022.37 1022.45 1022.57 1022.57 1022.57 1022.61 1022.65 1022.61 1022.57 1022.57 1022.57 1022.57 1022.61 1022.61 1022.57 1022.57 1022.53 1022.53 1022.49 1022.45 1022.45 1022.41 1022.37 1022.29 1022.21 1022.17 1022.17 1022.17 1022.17 1022.17 1021.97 1021.85 1022.01 1022.13 1022.21 1022.29 1022.33 1022.41 1022.45 1022.57 1022.65 1022.73 1022.85 1022.85 1022.93 1022.93 1022.97 1022.93 1022.85 1022.85 1022.85 1022.81 1022.73 1022.69 1022.61 1022.57 1022.45 1022.29
1022.37 1022.33 1022.29 1022.33 1022.37 1022.45 1022.45 1022.49 1022.49 1022.53 1022.57 1022.69 1022.73 1022.77 1022.81 1022.81 1022.81 1022.81 1022.81 1022.69 1022.69 1022.73 1022.77 1022.77 1022.77 1022.81 1022.81 1022.85 1022.85 1022.85 1022.85 1022.73 1022.61 1022.57 1022.53 1022.45 1022.45 1022.45 1022.45 1022.41 1022.41 1022.29 1022.13 1022.09 1022.17 1022.29 1022.33 1022.41 1022.45 1022.53 1022.61 1022.73 1022.85 1022.89 1022.93 1022.97 1022.97 1023.01 1022.97 1022.93 1022.93 1022.89 1022.85 1022.81 1022.73 1022.65 1022.57 1022.45 1022.29
1022.65 1022.57 1022.57 1022.57 1022.69 1022.73 1022.73 1022.73 1022.73 1022.77 1022.85 1022.89 1022.97 1023.01 1022.97 1022.97 1023.01 1023.01 1023.01 1022.89 1022.93 1022.97 1023.01 1023.01 1023.05 1023.09 1023.13 1023.09 1023.13 1023.13 1023.05 1022.97 1022.85 1022.77 1022.77 1022.73 1022.73 1022.69 1022.65 1022.57 1022.57 1022.45 1022.29 1022.17 1022.17 1022.25 1022.33 1022.41 1022.49 1022.57 1022.73 1022.85 1022.89 1022.97 1023.01 1022.97 1023.01 1023.01 1023.01 1023.01 1022.97 1022.93 1022.89 1022.85 1022.73 1022.69 1022.61 1022.53 1022.29
1022.97 1022.89 1022.85 1022.89 1022.89 1022.93 1022.97 1022.97 1023.01 1023.05 1023.09 1023.13 1023.17 1023.17 1023.17 1023.17 1023.25 1023.29 1023.29 1023.25 1023.21 1023.21 1023.21 1023.29 1023.29 1023.29 1023.29 1023.21 1023.21 1023.21 1023.21 1023.21 1023.13 1023.01 1023.01 1023.01 1022.93 1022.85 1022.77 1022.77 1022.73 1022.65 1022.45 1022.25 1022.21 1022.25 1022.29 1022.41 1022.53 1022.65 1022.77 1022.89 1022.97 1023.01 1023.01 1023.01 1023.01 1023.01 1023.01 1023.01 1022.97 1022.89 1022.85 1022.85 1022.77 1022.73 1022.65 1022.57 1022.41
1023.25 1023.17 1023.17 1023.13 1023.13 1023.17 1023.17 1023.21 1023.29 1023.33 1023.33 1023.33 1023.37 1023.41 1023.45 1023.45 1023.49 1023.53 1023.57 1023.53 1023.49 1023.45 1023.45 1023.45 1023.49 1023.45 1023.33 1023.29 1023.29 1023.33 1023.37 1023.37 1023.37 1023.33 1023.25 1023.17 1023.13 1023.01 1022.93 1022.93 1022.89 1022.81 1022.69 1022.45 1022.37 1022.37 1022.41 1022.45 1022.57 1022.69 1022.85 1022.97 1023.01 1023.01 1023.01 1023.01 1022.97 1022.97 1022.97 1022.97 1022.93 1022.89 1022.85 1022.81 1022.77 1022.73 1022.65 1022.57 1022.45
1023.45 1023.41 1023.37 1023.41 1023.41 1023.41 1023.41 1023.45 1023.53 1023.57 1023.57 1023.57 1023.57 1023.61 1023.61 1023.65 1023.69 1023.73 1023.73 1023.69 1023.69 1023.65 1023.65 1023.65 1023.65 1023.57 1023.53 1023.45 1023.45 1023.49 1023.53 1023.57 1023.57 1023.57 1023.49 1023.41 1023.29 1023.25 1023.17 1023.13 1023.05 1023.01 1022.93 1022.81 1022.65 1022.61 1022.57 1022.57 1022.61 1022.69 1022.81 1022.93 1023.01 1023.01 1023.01 1022.97 1022.89 1022.89 1022.89 1022.89 1022.89 1022.85 1022.81 1022.73 1022.69 1022.61 1022.57 1022.53 1022.45
Wind_Speed
4 4 4 4 4 4 3 3 2 2 3 3 4 4 3 3 3 3 3 3 3 4 4 4 3 4 4 4 5 6 8 8 8 8 8 8 8 8 8 8 8 8 8 8 8 7 7 7 7 6 6 5 6 6 6 6 6 7 7 6 6 6 6 7 7 7 7 6 5
4 4 4 4 4 4 4 4 3 3 3 3 4 4 4 4 4 4 4 4 4 4 4 4 4 5 5 5 6 6 8 9 9 9 9 9 9 9 8 8 8 8 8 8 7 7 6 7 7 6 6 5 6 6 6 6 6 7 8 8 6 5 5 6 6 7 7 6 5
5 5 5 5 5 5 4 4 4 5 5 5 4 4 4 4 4 4 4 4 4 4 4 4 5 5 6 6 6 6 7 9 9 9 9 9 9 9 9 9 9 9 9 8 7 7 7 7 7 7 6 5 6 6 6 7 7 7 8 7 5 5 5 5 5 6 5 5 6
6 6 5 5 6 6 5 5 6 6 6 5 5 4 5 5 5 4 5 5 5 5 5 5 5 6 6 7 7 8 8 9 10 10 9 9 10 10 10 9 10 10 9 9 9 9 9 9 7 7 7 7 7 7 6 6 7 7 6 6 5 5 5 5 5 5 5 5 5
7 6 6 6 6 6 6 6 7 7 6 5 4 4 5 5 5 5 5 5 5 5 5 6 6 6 7 8 9 9 10 10 10 10 10 10 10 10 10 10 10 10 9 10 10 10 10 10 8 7 6 6 6 6 7 7 8 7 6 5 5 5 5 5 5 5 5 5 5
8 7 7 7 7 7 6 7 8 7 6 5 5 5 5 5 5 5 6 6 6 7 7 7 7 7 7 9 10 10 10 10 10 10 10 11 11 11 11 11 11 10 10 10 11 11 10 9 7 6 6 6 7 8 8 8 8 7 7 6 6 6 6 6 5 5 5 6 6
8 8 8 9 9 8 7 7 7 7 6 6 7 7 7 6 7 7 7 7 7 7 7 6 7 7 8 9 9 10 9 9 10 10 11 11 11 11 11 11 11 11 11 11 11 10 9 8 7 6 6 7 7 8 9 8 8 8 8 7 6 6 6 6 5 5 6 8 8
9 9 9 10 9 9 8 8 8 8 7 7 8 8 9 9 9 9 9 8 7 7 7 6 7 8 9 9 10 10 10 10 10 10 11 11 12 12 11 11 12 12 12 11 11 10 9 8 7 7 7 7 7 8 9 10 10 10 9 9 7 6 6 6 5 6 7 9 8
9 9 10 10 10 10 10 10 10 10 10 9 9 9 9 9 10 9 9 8 8 8 7 7 8 9 10 11 11 10 10 10 11 11 11 11 12 12 11 11 12 12 12 11 12 12 11 9 8 7 7 7 7 8 9 11 11 11 10 8 8 7 7 7 7 7 7 8 8
9 10 10 10 10 10 11 11 12 12 12 11 10 10 10 10 9 9 8 8 8 8 8 8 9 10 11 11 11 11 10 10 11 11 12 12 12 12 11 11 12 12 11 10 11 11 11 9 9 8 8 8 9 10 10 10 11 11 9 7 8 8 8 7 7 7 7 7 8
10 10 10 9 10 11 11 12 12 11 11 10 10 10 10 10 9 9 8 9 9 10 10 9 9 10 10 11 11 10 10 10 10 11 12 12 13 13 12 12 13 12 11 10 10 9 9 9 10 10 10 9 10 10 10 11 11 11 10 8 8 9 9 8 7 7 7 7 8
11 10 10 10 10 11 11 11 10 10 10 10 11 10 10 9 9 10 10 11 11 11 10 10 10 10 10 9 10 10 11 11 12 12 13 13 14 14 13 13 13 12 11 10 9 9 9 9 10 11 11 10 9 9 10 11 12 11 10 9 9 8 8 8 7 6 6 6 7
11 10 10 10 11 11 11 11 10 9 10 10 10 9 9 9 9 10 11 11 11 10 9 9 9 9 9 10 10 10 11 11 12 13 13 13 14 14 13 13 12 12 11 10 10 9 9 10 11 11 11 10 9 9 10 11 11 11 10 9 9 8 8 7 7 6 6 7 7
11 10 10 10 11 11 11 10 9 9 9 10 10 9 8 8 9 10 10 10 10 10 10 9 9 8 9 10 11 11 12 12 13 14 14 13 13 13 13 12 12 12 11 10 11 11 11 11 11 12 12 12 11 10 11 11 11 10 10 9 9 8 8 7 7 7 7 7 7
11 11 11 11 11 10 10 10 8 8 9 9 9 8 8 8 9 9 10 10 10 10 9 9 9 9 10 11 11 12 12 12 13 13 14 14 14 13 13 12 12 11 11 11 11 12 13 12 12 12 12 12 11 11 11 11 10 10 9 9 9 8 8 8 7 7 7 7 7
11 11 11 11 11 10 10 9 8 8 8 9 8 8 8 8 8 9 10 10 9 9 9 10 9 9 10 11 11 11 11 12 13 13 13 13 13 13 13 13 12 12 12 12 12 13 13 12 12 12 12 11 11 10 10 10 10 10 10 9 9 9 8 8 7 7 7 7 7
12 11 11 11 11 11 10 9 8 8 9 9 9 9 8 8 8 9 10 10 9 9 9 10 9 9 9 10 9 10 10 11 11 12 12 13 13 13 13 13 12 12 13 13 13 13 13 12 11 11 10 10 10 10 10 10 10 10 10 10 9 9 8 8 7 7 7 7 7
12 12 11 12 12 12 11 11 10 10 10 10 10 10 9 9 9 10 10 10 10 10 10 10 9 9 10 10 9 9 9 10 11 11 12 12 13 13 13 13 12 12 13 13 13 13 13 12 10 10 9 9 9 9 10 10 10 10 10 10 9 9 8 8 7 7 7 7 7
12 12 12 12 12 12 12 12 12 11 11 11 11 11 11 11 11 11 10 10 10 10 10 10 10 10 10 10 10 9 10 10 11 12 12 13 13 13 13 13 12 12 13 13 13 12 12 11 10 10 9 9 9 9 10 10 10 10 10 10 9 8 8 8 7 7 6 6 6
12 12 12 12 12 12 12 12 12 11 11 10 11 12 12 12 12 11 11 10 10 10 10 10 10 10 11 11 11 10 10 9 11 12 12 12 13 13 13 13 13 12 12 12 12 12 11 11 10 10 10 10 10 10 10 10 9 9 9 9 8 8 8 7 7 7 6 6 5
13 12 12 12 12 13 13 12 12 11 11 12 12 13 12 12 12 12 12 11 10 10 10 10 10 10 10 11 11 11 10 9 10 11 12 12 12 12 12 12 12 12 12 11 11 11 11 11 10 10 10 10 10 9 9 9 9 9 8 8 7 7 7 7 7 6 6 6 5
12 12 12 12 13 13 13 12 12 12 12 12 12 12 12 12 12 11 11 11 11 11 11 10 10 10 10 10 11 10 10 9 10 10 11 11 11 11 11 11 12 12 12 12 11 11 11 11 11 10 10 9 9 9 9 8 8 8 8 8 7 7 7 6 6 6 6 6 5
12 12 12 12 12 13 13 12 12 12 12 12 12 12 12 12 11 11 11 11 11 11 11 10 10 10 10 10 10 11 11 11 10 10 10 10 10 10 10 11 11 12 11 10 10 10 10 10 10 10 9 9 8 8 8 8 8 8 8 8 7 7 7 6 6 6 6 6 6
12 12 11 11 12 12 12 11 12 12 13 12 12 12 12 11 11 11 11 11 11 11 10 9 9 10 10 10 10 11 11 11 11 11 10 10 9 9 9 9 10 10 9 9 9 9 9 8 8 8 8 8 8 8 8 8 8 8 7 7 7 7 6 6 7 7 7 7 7
12 12 12 11 11 11 11 11 12 12 12 12 12 12 11 11 11 12 12 12 12 12 11 10 10 9 9 10 10 10 10 11 11 11 10 9 8 7 7 7 7 7 8 10 14 14 13 10 8 7 6 7 7 7 7 8 7 7 7 6 6 6 7 7 8 8 8 8 7
13 13 12 12 11 11 11 12 12 12 12 12 12 12 11 11 11 12 12 12 12 11 11 10 10 10 9 9 9 10 9 9 9 10 9 8 7 6 5 5 4 4 7 13 17 18 17 15 12 9 7 6 6 7 7 7 7 7 6 6 6 7 7 8 8 9 8 8 8
12 12 12 12 12 11 11 11 11 12 12 12 12 12 11 11 11 11 12 12 11 11 10 10 9 9 9 9 10 10 9 8 8 9 9 8 7 6 5 3 3 4 8 15 18 18 17 17 15 12 9 6 6 6 6 6 6 6 6 7 7 7 8 8 8 8 8 8 7
12 11 12 12 12 11 11 11 12 12 12 12 12 12 11 12 12 12 12 11 11 10 10 9 8 7 7 8 9 10 9 9 8 8 8 8 8 7 5 4 3 6 11 17 17 17 17 16 15 14 12 8 6 6 6 6 6 6 6 6 7 7 7 7 7 6 7 7 7
12 12 12 12 12 11 11 12 12 12 12 12 12 12 12 12 13 12 12 12 11 10 9 7 6 6 7 8 8 9 10 10 9 8 9 9 9 7 6 5 7 11 15 17 16 16 15 15 15 15 13 10 7 5 5 5 5 6 6 5 6 6 6 5 5 5 5 5 6
12 12 12 12 12 11 11 12 12 12 11 11 11 12 12 13 13 13 12 12 11 10 8 7 7 8 8 8 8 9 9 9 9 9 10 11 10 9 7 6 8 12 15 16 15 15 15 15 15 15 14 12 9 6 5 5 5 5 5 4 4 4 5 5 5 5 5 5 5
12 12 12 12 12 12 12 12 12 12 11 11 12 13 13 13 13 12 12 11 10 9 8 9 10 10 10 9 9 9 9 9 9 10 10 10 10 9 8 7 8 11 14 15 14 14 14 15 15 15 15 13 9 6 5 5 5 4 4 4 4 4 4 4 5 5 5 5 5
11 12 12 12 12 12 12 12 12 12 12 13 13 13 13 13 12 11 10 9 9 9 9 10 11 11 10 10 10 10 10 10 10 10 10 9 9 9 8 7 6 9 12 14 14 14 15 15 15 15 14 13 9 6 4 4 4 4 4 4 4 4 4 4 5 5 5 5 5
11 11 12 12 12 12 11 11 12 12 12 13 13 13 12 12 11 10 9 9 9 9 10 10 11 10 10 10 10 10 10 10 10 10 10 10 10 10 9 7 5 7 11 13 14 15 15 15 15 15 13 11 7 5 4 4 3 3 4 4 4 4 4 5 5 5 5 5 4
10 11 11 12 11 11 11 11 11 11 12 12 12 12 11 10 10 10 9 9 9 9 9 10 10 9 9 9 9 10 10 9 9 9 9 9 10 10 9 7 5 6 11 16 15 16 16 15 14 14 12 10 6 4 3 4 4 4 4 5 5 5 5 5 5 5 5 5 4
10 10 11 11 11 10 10 11 11 11 12 12 11 11 10 10 9 9 9 9 9 9 9 9 9 9 9 9 9 10 10 9 9 9 9 10 10 10 10 8 6 7 13 18 17 16 16 15 14 12 10 8 5 3 3 4 5 5 5 6 6 6 6 6 5 5 5 5 4
9 10 11 11 10 10 10 11 11 11 11 11 11 10 9 9 8 7 8 9 9 9 9 9 9 9 10 10 9 9 9 9 9 9 10 10 10 10 10 9 8 9 13 19 17 16 15 14 13 12 9 6 3 3 3 4 4 5 5 6 6 6 6 6 6 6 6 6 5
8 9 10 11 10 10 10 10 11 11 11 10 10 9 8 8 7 7 7 8 9 10 10 10 10 10 10 9 9 8 8 8 9 9 10 10 10 10 10 9 8 8 11 16 16 15 14 13 13 11 8 5 3 3 3 3 3 4 4 5 5 5 5 5 5 6 6 7 7
8 9 10 10 10 10 10 10 11 11 10 10 9 8 8 7 7 6 7 8 8 9 9 9 9 9 9 9 8 8 8 9 9 10 9 9 9 9 9 9 8 8 8 12 14 13 13 13 13 11 8 5 3 3 2 3 3 3 3 3 3 4 4 4 4 5 6 7 9
8 9 9 10 10 10 10 10 10 10 10 9 8 8 7 7 6 6 6 6 6 7 7 8 7 7 8 9 9 9 9 9 9 9 9 8 9 10 10 9 8 9 9 11 12 12 12 13 13 12 9 6 3 2 2 2 2 2 2 2 2 3 3 3 3 4 5 7 10
8 8 9 10 10 10 10 10 9 9 8 8 8 7 7 7 6 6 6 5 5 6 6 6 7 7 8 9 9 10 10 9 9 9 9 9 10 11 12 10 9 10 10 12 13 13 12 12 13 12 9 5 3 2 2 2 2 2 2 2 2 3 3 3 3 3 4 5 8
8 8 9 9 9 9 9 9 8 8 7 7 7 7 6 6 5 5 5 6 6 6 6 6 7 8 8 9 9 9 10 10 9 9 9 10 11 11 11 10 10 10 10 11 13 13 12 12 12 11 9 6 3 2 1 1 2 2 3 3 3 3 3 4 3 3 4 5 5
Wind_Direction
151 151 151 151 146 143 138 132 115 107 108 114 115 114 109 100 90 82 75 76 82 82 79 72 64 55 49 46 63 76 81 78 71 68 67 67 66 68 72 80 86 91 95 97 97 95 93 92 90 86 80 77 79 79 78 79 81 82 81 80 80 80 81 81 78 75 74 76 79
136 129 122 123 120 118 114 109 104 102 102 102 107 110 108 100 95 90 84 80 83 86 85 79 70 63 57 54 61 71 79 81 76 73 70 68 67 67 69 73 78 84 89 93 94 93 92 90 89 87 84 81 83 83 81 77 79 81 82 82 82 82 81 79 78 77 76 75 75
113 107 104 111 116 117 117 117 112 105 99 94 97 99 100 98 96 92 88 84 84 85 85 83 76 70 66 62 62 68 74 80 78 76 73 70 68 68 69 72 75 76 78 81 83 84 84 84 83 82 82 82 85 85 83 77 77 78 79 78 79 79 79 79 78 77 75 73 71
94 94 96 103 111 115 119 122 115 108 103 99 96 96 96 97 96 95 92 87 83 80 80 83 81 76 72 70 68 68 70 74 76 76 74 71 69 68 68 71 73 74 74 74 76 78 78 77 76 77 78 82 83 82 79 75 75 75 76 73 73 74 76 77 75 74 74 75 73
85 83 84 89 95 101 107 111 109 107 105 104 104 102 101 99 98 96 92 86 80 78 78 81 82 80 77 75 72 70 69 70 73 74 73 71 70 68 67 67 70 71 72 71 73 74 76 76 77 78 79 80 77 74 74 76 78 79 77 72 68 69 71 73 72 72 75 78 77
84 82 81 82 82 85 89 92 97 100 103 104 103 101 100 98 96 94 91 88 84 80 78 78 79 80 79 77 74 71 69 67 69 72 73 73 71 68 66 65 66 67 68 69 71 73 76 80 82 84 84 82 75 72 72 76 79 79 77 71 65 64 65 68 70 73 75 77 78
81 80 80 79 79 79 82 85 89 92 92 89 89 91 93 94 94 92 91 88 82 77 74 72 73 76 78 77 75 73 71 69 69 70 71 72 70 68 67 65 65 65 65 67 69 72 75 79 82 83 81 79 75 70 68 72 75 76 74 69 62 58 58 61 64 68 70 71 71
76 76 77 77 78 79 81 85 87 86 83 79 82 86 90 92 93 92 89 84 80 77 74 72 72 74 77 78 77 76 74 73 70 69 70 72 71 69 68 68 66 65 64 64 66 68 70 72 72 73 73 73 72 69 67 68 72 73 72 68 62 55 51 52 55 61 65 67 65
77 76 76 77 78 79 81 82 82 82 81 80 80 82 86 89 90 89 87 84 83 81 79 76 75 76 77 78 78 77 76 74 73 71 70 71 71 71 70 69 68 66 65 63 65 67 68 68 66 66 67 69 70 69 67 67 71 72 71 68 63 57 54 54 56 60 65 66 64
81 80 80 80 81 82 82 80 78 79 80 81 79 79 81 83 84 85 86 87 85 81 79 78 78 78 78 78 78 78 77 77 76 74 72 71 71 71 70 70 68 67 66 64 65 67 68 70 70 70 71 73 74 73 71 70 72 72 70 68 65 62 60 57 59 62 65 67 66
81 81 82 83 84 84 82 80 78 77 77 79 78 77 77 79 81 84 86 86 83 80 78 78 79 80 80 80 80 80 80 80 80 78 76 73 71 70 69 69 68 67 66 64 67 69 72 75 77 77 77 77 78 77 75 74 74 73 71 70 68 66 63 59 59 61 65 66 65
79 80 81 83 84 83 81 80 79 78 78 79 78 77 77 78 82 84 85 83 82 80 78 76 79 81 82 83 83 83 83 84 84 82 80 76 73 71 70 69 70 69 68 67 68 71 75 77 79 80 79 77 78 78 78 78 77 75 74 71 69 67 64 59 58 59 62 64 63
79 80 80 81 82 81 81 80 80 80 79 80 79 79 79 79 81 82 82 82 82 81 79 76 77 79 82 84 85 86 86 86 86 85 83 81 79 76 74 72 73 73 73 72 72 74 77 78 78 79 78 76 75 76 77 78 78 77 76 73 71 68 65 60 58 58 60 61 60
77 78 79 80 80 81 81 81 81 80 79 80 80 81 81 80 79 80 81 82 84 84 83 80 77 77 79 82 85 87 88 89 88 88 87 87 86 84 82 80 79 79 78 77 76 77 77 77 77 77 77 75 73 73 73 75 77 78 78 76 73 70 65 59 56 56 57 58 58
76 76 78 78 79 80 81 81 81 80 79 80 81 81 80 78 77 79 80 82 84 86 86 85 82 80 79 80 83 86 88 88 89 89 89 89 89 88 88 86 84 83 83 82 79 77 76 75 74 74 75 75 74 73 74 75 77 78 77 75 72 69 64 58 55 55 56 57 56
75 76 76 78 79 79 80 80 80 79 79 79 78 77 76 74 75 76 78 81 83 84 85 86 86 83 80 80 81 83 85 86 86 87 88 89 89 88 87 86 85 84 84 83 80 77 74 72 72 73 74 75 76 76 76 77 78 76 74 72 69 66 62 59 56 56 56 57 56
75 76 77 78 79 80 80 80 80 79 78 78 76 74 73 72 72 73 74 76 79 81 82 83 83 83 82 81 79 80 82 83 84 85 86 87 88 87 86 85 84 84 83 82 80 78 76 74 74 74 76 77 78 77 76 76 75 74 72 69 66 63 61 58 57 56 56 56 53
76 76 77 78 79 80 80 81 81 80 79 78 76 73 71 71 72 71 70 70 73 77 79 80 80 80 81 81 79 78 80 82 83 85 86 88 88 88 87 86 85 84 83 82 82 82 81 80 80 80 80 80 78 76 75 74 73 72 70 68 65 62 59 57 55 54 54 53 50
76 76 76 78 79 80 80 80 80 79 79 79 77 75 72 71 71 71 69 67 69 72 76 77 77 77 78 78 78 77 79 82 85 87 89 91 91 91 90 90 88 87 85 85 85 85 85 85 84 84 82 80 78 76 74 73 72 71 70 68 65 61 58 56 53 52 51 49 46
76 76 76 78 79 80 79 78 78 79 80 80 79 77 75 72 71 71 70 68 67 67 69 71 72 73 74 75 76 76 77 81 85 88 91 93 94 94 94 93 91 89 87 86 86 86 86 85 84 83 81 80 78 77 75 74 73 72 71 69 65 62 58 56 53 51 48 46 41
78 78 79 80 80 80 80 79 80 81 82 81 80 79 78 77 75 74 74 72 69 67 65 65 67 70 72 74 75 75 76 78 83 88 92 95 95 96 95 94 92 90 88 86 86 85 84 83 82 81 80 79 78 78 78 77 76 74 72 70 67 62 59 56 54 51 47 42 37
79 79 79 80 81 82 83 84 84 83 83 81 81 81 80 79 79 79 78 76 73 70 67 65 66 67 69 72 75 77 78 79 82 86 91 94 96 96 96 95 93 91 88 86 85 84 83 82 81 81 80 80 79 79 79 79 78 75 72 69 66 63 59 56 54 51 47 41 34
79 78 77 77 78 81 84 85 85 83 82 82 81 81 80 80 80 80 79 77 74 72 70 68 65 64 65 67 72 76 80 81 82 84 87 91 94 95 95 94 93 91 89 88 87 87 86 84 83 82 82 83 81 78 76 74 73 71 69 66 64 61 58 55 53 49 45 39 33
78 76 74 73 73 75 78 81 81 81 80 80 79 79 79 79 79 78 77 75 73 71 69 67 64 63 62 63 67 72 77 82 84 85 86 88 92 95 97 98 98 97 96 94 93 92 91 89 88 87 85 84 81 77 72 69 68 67 66 65 63 60 56 51 48 45 41 37 31
75 74 72 71 70 71 73 76 77 77 77 77 76 76 76 76 76 75 74 72 70 69 67 65 63 61 60 61 63 67 71 77 82 86 88 89 91 96 102 105 106 104 100 95 93 93 93 94 94 92 88 84 81 76 72 69 68 68 68 66 63 58 52 46 42 38 36 33 29
72 72 71 70 69 69 70 72 74 75 75 75 73 73 72 72 72 72 71 69 67 65 63 62 60 59 59 59 60 63 66 70 76 82 87 90 92 96 102 107 108 102 95 91 91 91 92 94 94 93 89 84 81 79 76 73 71 71 70 66 61 56 50 44 37 32 30 28 23
71 72 72 72 70 69 68 70 71 72 72 72 71 71 70 70 70 70 69 67 65 63 61 59 58 58 59 58 57 58 60 64 69 75 80 86 89 92 96 103 110 102 94 90 89 90 90 92 91 90 88 84 82 81 81 79 75 72 68 63 58 54 49 43 36 30 25 20 16
74 75 76 76 73 72 70 70 70 70 70 70 70 71 71 70 70 69 68 66 64 62 60 58 56 57 57 56 55 54 54 55 60 65 70 75 78 82 89 102 107 96 91 88 87 87 88 88 88 87 87 87 85 83 82 80 74 69 64 59 55 51 47 43 36 29 23 15 11
77 79 78 77 76 75 73 72 71 71 71 70 71 71 71 70 68 67 66 64 61 60 59 58 58 58 58 57 56 54 53 51 53 56 60 62 64 66 73 87 95 93 90 87 86 85 84 83 83 84 84 85 84 80 76 73 69 65 60 57 53 49 46 41 35 28 21 14 9
76 78 78 77 76 74 72 71 71 72 71 71 70 70 69 67 65 64 63 62 61 61 61 63 64 63 62 59 57 55 53 51 51 52 54 56 55 54 56 66 86 92 91 88 86 84 82 81 82 82 82 81 80 77 73 70 68 65 63 59 55 51 47 41 34 27 20 13 8
75 76 77 75 74 72 71 70 71 71 71 71 70 69 67 65 63 62 61 62 63 64 66 67 67 65 63 60 59 57 55 52 51 51 52 53 52 50 48 49 76 88 90 86 84 82 80 80 82 83 83 82 80 78 76 74 73 71 68 65 58 51 45 39 32 24 17 11 7
75 76 77 76 74 72 71 70 71 72 72 72 71 70 69 67 65 64 63 63 65 65 65 65 65 63 62 59 58 57 55 53 52 51 52 53 52 49 44 39 59 80 87 83 81 80 79 80 83 85 86 85 85 85 84 84 81 77 71 65 56 48 40 34 28 21 14 7 2
75 76 77 77 76 74 73 73 73 74 74 73 72 72 72 72 70 68 66 65 65 64 63 63 63 62 61 59 58 57 56 55 52 51 51 53 54 51 46 35 45 77 89 87 84 82 81 82 85 87 88 88 89 89 87 84 79 72 65 59 51 44 37 31 25 18 9 1 354
75 78 79 79 78 77 76 75 76 76 75 74 72 72 72 74 73 72 71 69 68 67 66 65 65 64 63 61 60 59 57 55 52 49 49 50 52 50 46 33 26 73 93 95 90 87 86 86 86 86 86 86 85 83 78 73 67 61 56 51 45 39 32 27 21 13 5 354 347
77 80 81 80 79 78 78 77 76 76 75 75 73 72 71 72 73 74 75 77 75 72 69 67 67 66 63 60 59 58 57 54 51 49 48 48 49 48 43 31 22 61 88 96 92 90 88 87 86 84 83 81 78 71 67 64 60 56 51 47 41 34 26 20 15 9 1 351 343
75 80 82 81 79 78 77 77 77 76 76 76 75 73 72 70 69 71 74 77 76 73 70 66 65 63 61 58 56 54 53 53 52 50 49 48 48 46 41 29 21 51 81 95 93 91 89 86 84 82 81 78 71 63 60 59 57 53 49 46 39 31 22 14 8 3 358 350 344
70 77 81 81 79 78 78 78 79 78 77 76 74 73 71 69 65 64 66 71 72 71 68 66 64 63 62 61 57 53 50 51 53 52 50 47 48 46 41 31 20 38 71 94 94 91 87 83 80 78 76 72 63 56 57 58 56 52 48 45 37 27 17 8 3 360 357 352 353
67 74 80 82 81 80 80 79 78 78 77 75 73 70 68 66 62 59 60 65 70 72 71 68 67 66 67 67 64 57 51 49 52 52 50 46 47 47 44 35 20 24 49 80 85 84 81 80 78 76 74 72 66 61 60 61 58 53 48 42 33 21 11 2 359 358 356 354 360
67 73 78 82 82 81 80 77 77 76 76 75 72 68 66 65 63 60 59 60 67 72 73 71 69 69 70 71 68 61 54 49 49 50 49 45 46 47 46 39 24 19 28 51 61 64 67 72 76 77 77 77 76 74 72 72 65 58 49 38 27 16 9 1 357 355 355 354 359
68 72 75 78 79 80 79 77 75 74 74 74 72 70 69 69 68 65 62 61 64 68 71 70 67 67 68 70 68 63 57 51 47 47 47 46 45 45 43 38 27 20 22 34 44 48 51 59 70 77 80 82 84 85 85 84 73 61 51 38 26 18 11 4 359 358 356 354 355
66 69 72 73 75 77 77 77 75 73 71 71 72 73 73 73 70 67 64 64 64 66 68 69 65 63 64 67 67 64 59 54 48 46 46 45 44 41 38 34 27 21 19 25 37 41 43 44 55 66 75 81 84 88 90 89 66 55 45 37 27 18 11 5 6 5 3 358 353